Regional Weather Roundup
Issued by NWS

Home | Current Version | Previous Version | Graphics & Text | Print | Product List | Glossary On
Versions: 1 2 3 4 5 6 7 8 9 10 11 12 13 14 15 16 17 18 19 20 21 22 23 24 25 26 27 28 29 30 31 32 33 34 35 36 37 38 39 40 41 42 43 44 45 46 47 48 49 50
000
ASUS43 KFSD 172010
RWRSD

WEATHER ROUNDUP FOR SOUTH DAKOTA
NATIONAL WEATHER SERVICE SIOUX FALLS SD
200 PM CST FRI NOV 17 2017

NOTE: "FAIR" INDICATES FEW OR NO CLOUDS BELOW 12,000 FEET WITH NO
SIGNIFICANT WEATHER AND/OR OBSTRUCTIONS TO VISIBILITY.


SDZ001>005-009-010-012>017-172100-
NORTHWEST AND NORTH CENTRAL SOUTH DAKOTA

CITY           SKY/WX    TMP DP  RH WIND       PRES   REMARKS
BUFFALO          N/A     44  33  65 W10       29.58R
FAITH            N/A     41  37  86 W9        29.66R
MOBRIDGE       CLOUDY    43  30  60 N6        29.64R
$$

SDZ012>016-024>037-041>051-057-063-072>074-172100-
SOUTHWEST AND SOUTH CENTRAL SOUTH DAKOTA

CITY           SKY/WX    TMP DP  RH WIND       PRES   REMARKS
RAPID CTY ARPT CLOUDY    42  34  73 S8        29.64R
PIERRE         CLOUDY    44  37  76 NW10      29.66R
CUSTER         CLOUDY    33  31  92 VRB5      29.61F WCI  29
ELLSWORTH AFB  CLOUDY    40  40 100 E6        29.63
PHILIP         CLOUDY    43  37  79 W5        29.65F
PINE RIDGE     CLOUDY    44  31  60 E8        29.65R
SPEARFISH      LGT RAIN  36  36 100 CALM      29.64F
WINNER         CLOUDY    48  36  63 N7        29.65R
$$

SDZ004>011-016>023-039-040-172100-
NORTHEAST SOUTH DAKOTA

CITY           SKY/WX    TMP DP  RH WIND       PRES   REMARKS
ABERDEEN       CLOUDY    44  30  57 N14       29.65R
WATERTOWN      MOSUNNY   43  35  73 N15       29.58F
BROOKINGS        N/A     47  34  60 MISG      29.58S
SISSETON         N/A     41  32  70 N13       29.61F
$$

SDZ017-020-022-023-036>040-048>070-172100-
SOUTHEAST SOUTH DAKOTA

CITY           SKY/WX    TMP DP  RH WIND       PRES   REMARKS
SIOUX FALLS    PTSUNNY   49  38  65 N12       29.57F
HURON          CLOUDY    47  33  58 N15       29.61S
CHAMBERLAIN    CLOUDY    47  37  67 NW10      29.64R
MITCHELL       CLOUDY    48  34  58 N14       29.59F
YANKTON        CLOUDY    49  38  65 N10       29.56F
$$

ABBREVIATIONS USED IN REMARKS
   TC - TEMPERATURE IN CELSIUS
  WCI - WIND CHILL INDEX
   HX - HEAT INDEX
  VSB - VISIBILITY





USA.gov is the U.S. government's official web portal to all federal, state and local government web resources and services.